Location: Cronhütte
(48.9135°N, 9.6869°E)
Time: 09:21:50
(UTC+00:00)

Cosmos 1943 Rocket - Visible Passes

Search period start: 07 October 2024 00:00
Search period end: 17 October 2024 00:00
Orbit: 813 x 841 km, 71.0° (Epoch: 06 October)

Date Brightness Start Highest point End Pass type
(mag) Time Alt. Az. Time Alt. Az. Time Alt. Az.
07 Oct 5.1 03:34:12 10° ESE 03:36:39 13° E 03:39:06 10° ENE visible
08 Oct 5.2 03:15:41 10° ESE 03:17:18 11° E 03:18:54 10° ENE visible
08 Oct 2.5 04:54:31 10° SSW 04:59:59 71° ESE 05:05:29 10° NNE visible
09 Oct 2.7 04:35:06 10° SSW 04:40:31 63° ESE 04:45:58 10° NNE visible
10 Oct 2.9 04:15:43 10° S 04:21:04 56° ESE 04:26:27 10° NE visible
11 Oct 3.1 03:56:22 10° S 04:01:37 49° ESE 04:06:56 10° NE visible
12 Oct 3.2 03:37:02 10° S 03:42:11 43° ESE 03:47:23 10° NE visible
13 Oct 3.4 03:17:43 10° S 03:22:46 38° ESE 03:27:50 10° NE visible
13 Oct 2.6 05:01:19 10° WSW 05:06:28 40° NW 05:11:40 10° NNE visible
14 Oct 3.6 02:59:01 13° SSE 03:03:21 34° ESE 03:08:15 10° NE visible
14 Oct 2.5 04:41:41 10° SW 04:46:57 45° NW 04:52:14 10° NNE visible
15 Oct 3.7 02:41:07 19° SSE 02:43:55 30° ESE 02:48:39 10° NE visible
15 Oct 2.4 04:22:41 13° SW 04:27:25 50° NW 04:32:47 10° NNE visible
16 Oct 3.9 02:23:01 23° SE 02:24:31 27° ESE 02:29:03 10° NE visible
16 Oct 2.2 04:04:35 23° SW 04:07:53 55° WNW 04:13:20 10° NNE visible
